TimeEDT,TemperatureF,Dew PointF,Humidity,Sea Level PressureIn,VisibilityMPH,Wind Direction,Wind SpeedMPH,Gust SpeedMPH,PrecipitationIn,Events,Conditions,WindDirDegrees,DateUTC
12:53 AM,48.9,35.1,59,29.93,10.0,West,3.5,-,N/A,,Clear,270,2012-10-07 04:53:00
1:53 AM,43.0,37.0,80,29.94,10.0,Calm,Calm,-,N/A,,Clear,0,2012-10-07 05:53:00
2:53 AM,41.0,37.0,86,29.94,10.0,SSE,3.5,-,N/A,,Clear,150,2012-10-07 06:53:00
3:53 AM,37.0,34.0,89,29.97,10.0,Calm,Calm,-,N/A,,Clear,0,2012-10-07 07:53:00
4:53 AM,37.9,35.1,89,29.99,10.0,Calm,Calm,-,N/A,,Clear,0,2012-10-07 08:53:00
5:53 AM,41.0,37.9,89,30.00,10.0,Calm,Calm,-,N/A,,Clear,0,2012-10-07 09:53:00
6:53 AM,43.0,39.0,86,30.01,10.0,Calm,Calm,-,N/A,,Clear,0,2012-10-07 10:53:00
7:53 AM,44.1,39.9,85,30.02,10.0,NNE,3.5,-,N/A,,Mostly Cloudy,20,2012-10-07 11:53:00
8:53 AM,46.9,41.0,80,30.04,10.0,Calm,Calm,-,N/A,,Mostly Cloudy,0,2012-10-07 12:53:00
9:53 AM,48.9,37.0,64,30.04,10.0,Calm,Calm,-,N/A,,Clear,0,2012-10-07 13:53:00
10:53 AM,50.0,36.0,59,30.05,10.0,Calm,Calm,-,N/A,,Overcast,0,2012-10-07 14:53:00
11:53 AM,52.0,37.0,57,30.05,10.0,South,8.1,-,N/A,,Partly Cloudy,170,2012-10-07 15:53:00
12:53 PM,52.0,36.0,54,30.05,10.0,SW,3.5,-,N/A,,Mostly Cloudy,220,2012-10-07 16:53:00
1:53 PM,53.1,37.0,55,30.03,10.0,SSE,5.8,-,N/A,,Mostly Cloudy,160,2012-10-07 17:53:00
2:53 PM,55.0,37.0,51,30.02,10.0,South,5.8,-,N/A,,Overcast,170,2012-10-07 18:53:00
3:53 PM,55.9,34.0,44,30.00,10.0,Variable,4.6,-,N/A,,Partly Cloudy,0,2012-10-07 19:53:00
4:53 PM,55.0,34.0,45,29.99,10.0,WSW,5.8,-,N/A,,Overcast,250,2012-10-07 20:53:00
5:53 PM,54.0,37.9,55,30.00,10.0,Calm,Calm,-,N/A,,Overcast,0,2012-10-07 21:53:00
6:53 PM,50.0,39.9,68,29.99,10.0,Calm,Calm,-,N/A,,Overcast,0,2012-10-07 22:53:00
7:53 PM,48.9,41.0,74,29.98,10.0,Calm,Calm,-,N/A,,Overcast,0,2012-10-07 23:53:00
8:53 PM,48.0,42.1,80,30.04,10.0,Calm,Calm,-,N/A,,Overcast,0,2012-10-08 00:53:00
9:53 PM,46.9,44.1,90,30.04,10.0,ESE,3.5,-,0.01,Rain,Light Rain,120,2012-10-08 01:53:00
10:53 PM,46.0,43.0,89,30.04,10.0,Calm,Calm,-,0.05,Rain,Light Rain,0,2012-10-08 02:53:00
11:36 PM,46.4,42.8,87,30.03,9.0,Calm,Calm,-,0.03,Rain,Light Rain,0,2012-10-08 03:36:00
11:53 PM,46.0,44.1,93,30.05,8.0,West,3.5,-,0.03,Rain,Light Rain,260,2012-10-08 03:53:00